Wind_Speed
9 9 9 9 9 9 9 11 12 14 15 17 17 18 18 17 16 16 16 16 16 16 15 15 16 15 13 12 10 9 9 10 10 10 10 10 10 10 11 11 11 11 10 10 9 8 8 7 6 6 5 4 3 2 1 1 1 1 2 2 2 2 2 2 2 2 2 2 2 2 2 2 3 3 4 4 5 6 7 7 8 8 8 9 9
10 11 10 10 10 10 10 11 12 13 14 16 17 18 18 18 17 17 17 17 17 16 16 16 16 15 14 12 10 9 9 10 10 10 10 10 10 10 10 11 11 10 10 9 9 8 8 7 7 6 6 5 4 3 2 2 2 2 2 3 3 2 2 2 3 3 4 3 4 4 3 4 4 5 6 6 7 8 8 9 9 9 9 9 10
11 11 11 11 11 11 11 11 11 12 14 15 16 18 18 19 18 18 18 18 18 17 17 16 16 15 14 13 11 10 10 10 10 10 10 9 9 9 9 10 10 10 9 9 9 9 8 8 7 7 6 6 5 5 4 4 4 4 4 4 4 4 4 4 5 5 5 5 5 4 4 5 6 7 8 8 8 9 8 8 8 9 9 9 10
11 12 11 11 11 12 12 11 11 12 13 15 16 18 19 19 19 19 19 19 19 18 17 17 16 16 14 13 11 10 10 10 10 10 9 9 9 8 9 9 9 9 8 8 8 8 8 8 8 7 7 6 6 6 6 5 5 5 5 5 5 5 6 7 7 7 7 7 6 6 7 7 8 9 9 8 8 8 8 8 9 9 10 10 10
11 12 12 12 11 12 12 12 12 12 12 14 16 17 19 19 20 20 19 19 19 19 18 17 16 16 14 13 12 10 10 9 9 10 9 9 8 8 8 8 8 8 8 8 7 7 8 8 8 8 7 7 6 6 6 6 6 6 6 6 6 7 8 8 9 9 9 8 8 8 9 9 10 10 9 8 9 9 9 10 11 11 11 11 11
11 13 13 13 12 12 13 13 12 12 12 13 15 17 18 19 19 20 19 19 19 19 18 17 16 16 15 13 12 11 10 9 9 9 9 9 8 8 8 8 7 7 7 7 7 7 7 7 8 8 7 7 6 6 6 5 5 6 6 6 7 8 9 9 10 10 10 11 10 10 11 11 11 9 9 10 10 11 12 12 13 13 13 12 13
12 13 14 14 13 13 13 13 13 12 12 13 14 16 18 19 19 19 19 18 18 18 18 17 16 15 15 14 12 11 10 9 9 9 9 9 8 8 7 7 7 6 6 6 6 6 7 7 8 8 7 7 6 6 5 5 5 6 7 7 8 9 9 10 10 10 10 10 11 11 11 10 9 9 10 11 12 13 13 13 13 13 13 14 14
13 14 14 14 14 13 14 14 13 12 12 12 13 15 17 18 19 18 18 17 17 17 17 17 16 15 15 14 13 12 10 9 9 9 9 9 8 7 7 6 6 6 6 6 6 6 7 8 8 8 7 7 6 6 6 6 6 6 7 8 9 9 10 10 9 9 8 8 10 10 9 9 10 11 12 12 12 13 13 13 13 13 14 14 15
15 15 15 15 14 13 14 14 13 12 11 11 13 14 16 18 19 18 17 17 17 17 16 16 15 14 14 14 13 12 11 10 9 8 8 8 8 7 6 6 6 6 6 6 6 7 7 8 8 8 7 7 7 7 7 7 7 6 7 7 8 8 9 9 9 9 8 8 9 10 10 10 11 11 12 12 12 12 12 13 13 13 14 14 15
15 15 16 16 14 13 13 13 12 11 11 11 12 14 16 18 19 18 17 16 16 16 16 15 15 14 13 13 13 13 12 10 9 8 8 8 8 7 7 6 6 6 6 7 7 7 8 8 8 8 8 8 8 7 7 7 7 7 7 7 7 8 8 8 9 10 10 9 9 10 10 11 11 11 11 11 11 12 13 13 14 14 15 15 16
15 15 16 15 15 13 12 11 10 10 10 11 12 15 17 19 19 19 17 16 16 15 15 15 15 13 13 13 13 13 12 11 10 8 7 7 8 8 7 7 6 6 6 7 8 8 8 8 8 8 8 8 8 8 8 7 8 8 8 8 8 8 7 7 8 8 9 10 10 10 11 11 11 11 10 10 11 13 14 14 15 16 16 17 17
15 15 15 15 14 12 11 10 9 9 11 13 14 16 18 19 20 19 18 16 16 15 15 14 14 13 12 13 13 13 12 12 10 9 8 7 8 8 8 8 7 7 7 8 8 9 9 9 8 8 8 8 8 8 8 8 8 9 9 9 9 8 8 8 8 8 9 10 10 11 11 11 12 12 11 11 12 14 15 16 17 17 18 19 19
18 17 14 14 14 12 10 8 9 10 12 14 15 17 18 19 20 20 18 17 16 15 15 14 14 13 13 13 13 13 13 13 11 10 9 8 8 8 9 8 8 8 8 8 9 10 10 10 10 9 9 8 9 9 9 9 9 9 9 9 9 9 9 9 9 9 10 10 10 12 12 12 12 12 13 13 14 15 16 17 18 19 20 20 20
21 18 14 13 13 12 10 8 9 11 13 15 15 16 18 19 20 20 19 18 16 15 14 13 13 13 13 13 13 14 14 14 13 11 10 9 9 9 9 9 9 9 9 9 9 10 11 11 11 11 10 9 9 9 9 10 10 10 9 9 9 10 10 10 10 11 11 12 11 12 13 13 13 14 14 15 15 17 18 18 19 20 21 21 21
20 18 14 13 13 11 9 8 10 12 13 14 16 17 17 18 19 19 19 17 15 14 13 12 13 13 14 14 14 14 14 14 14 13 11 10 10 9 9 10 10 9 9 9 10 10 11 12 12 12 11 11 10 10 10 9 9 10 9 9 9 10 11 10 10 11 12 13 13 14 15 14 15 15 15 15 17 18 19 20 20 21 21 22 22
20 18 14 13 13 11 9 9 11 12 13 14 16 17 17 17 17 17 17 16 14 13 12 12 12 13 14 15 14 14 14 15 15 14 12 11 11 10 10 10 10 10 10 10 10 10 11 12 12 12 12 12 11 11 10 10 9 9 9 9 10 10 11 11 11 12 13 15 15 15 16 15 15 15 15 17 18 19 20 21 21 22 22 23 23
20 17 14 13 12 10 8 9 11 12 13 14 15 16 16 16 16 15 14 13 12 12 12 12 12 13 14 15 15 14 14 15 15 14 13 12 11 11 11 11 11 10 10 10 10 10 11 11 12 12 12 12 12 12 11 10 10 9 9 10 11 11 11 12 12 12 13 15 16 17 17 16 16 16 17 19 20 21 22 22 22 22 23 24 25
17 15 13 12 12 9 8 9 10 12 12 13 14 14 15 15 15 14 13 12 11 11 11 12 13 14 15 16 15 15 14 15 15 15 13 12 12 11 11 11 11 11 11 11 10 10 10 11 12 12 12 12 13 13 12 11 11 11 11 11 12 12 13 13 14 14 14 15 16 18 18 17 17 18 19 21 22 23 23 23 23 23 24 25 26
13 13 12 12 11 9 8 9 10 12 12 12 12 12 13 15 15 15 14 13 12 12 13 14 14 15 16 16 16 16 15 15 16 15 14 13 12 12 12 12 12 12 11 11 11 11 11 11 12 12 12 13 13 13 13 12 12 12 12 13 13 13 14 15 16 16 16 17 17 18 18 18 18 19 21 22 24 25 25 24 24 25 25 26 27
10 13 13 12 11 10 9 9 10 12 12 11 11 11 12 14 15 16 15 15 14 14 14 15 16 16 16 16 16 16 15 15 15 15 15 14 13 12 13 13 13 13 12 12 12 11 11 12 12 12 13 13 14 13 13 13 13 14 14 14 15 15 15 16 16 17 18 18 18 19 19 19 19 20 22 24 25 26 26 25 25 26 26 27 28
11 14 15 14 13 11 10 10 10 12 13 12 11 12 12 13 15 16 17 16 16 15 15 16 16 16 16 16 16 16 15 14 15 15 15 14 13 13 14 14 14 14 14 13 14 13 12 13 13 13 14 14 15 15 14 14 15 15 15 15 16 16 16 16 17 17 18 18 19 19 20 20 20 21 23 25 26 27 26 26 26 26 27 28 28
15 15 16 16 15 13 11 10 10 12 13 13 13 14 14 15 16 17 18 18 17 16 16 16 16 16 16 16 16 15 14 14 14 14 14 14 13 14 14 15 15 15 15 15 15 15 14 14 14 15 15 16 16 16 15 15 16 17 17 17 17 17 17 17 18 17 18 19 19 19 20 20 21 23 24 26 27 27 27 27 27 28 28 29 29
20 18 16 17 17 15 13 10 10 12 14 15 15 15 16 17 18 19 19 20 19 18 16 16 16 16 16 16 15 14 13 13 14 14 14 14 14 15 15 16 16 16 16 17 16 16 15 15 15 16 16 17 16 16 15 15 16 17 17 17 17 17 17 17 18 18 19 20 20 20 21 21 22 24 26 27 28 28 27 27 27 28 29 29 29
23 21 17 16 17 16 14 11 11 13 15 16 17 17 17 17 19 20 20 20 21 19 17 17 17 16 16 16 15 14 13 14 14 15 15 15 16 16 16 17 17 17 18 18 17 17 17 16 16 17 16 15 15 14 14 15 17 17 16 16 16 16 17 18 19 20 21 22 22 22 22 22 23 25 26 28 29 29 28 27 28 29 30 30 29
22 21 18 17 17 16 14 12 12 14 15 16 18 18 18 18 19 20 20 20 21 20 18 18 18 17 16 16 16 15 14 15 15 15 15 15 15 16 17 18 18 18 18 18 17 16 16 15 16 16 14 14 15 14 14 16 17 16 16 17 18 18 20 20 21 22 22 23 23 23 23 23 24 26 28 29 30 30 29 29 29 30 31 30 30
21 19 18 17 16 16 14 13 13 14 15 16 18 18 19 19 19 19 18 18 20 20 19 20 19 18 17 16 16 16 16 16 16 14 14 14 15 16 16 18 19 18 18 18 17 16 16 15 15 14 13 14 15 15 15 16 17 17 16 18 19 21 22 21 21 23 23 24 24 23 23 24 25 27 29 30 30 29 29 30 31 31 31 31 30
19 18 18 17 16 16 15 14 14 15 15 16 17 18 19 19 19 18 18 17 19 19 19 20 20 20 19 17 17 16 17 17 16 14 15 15 15 15 15 17 18 18 18 17 17 17 17 15 15 14 13 14 16 16 16 16 17 17 17 18 19 21 22 22 22 23 24 24 23 23 23 25 26 28 30 30 29 30 30 31 31 31 31 31 30
17 17 17 17 16 16 16 15 15 16 16 17 17 18 19 20 19 18 18 17 18 19 19 20 21 21 21 20 19 18 17 17 16 15 16 16 15 15 15 17 17 18 17 17 18 18 17 16 16 15 13 14 16 17 17 16 17 17 18 19 20 21 23 23 23 23 23 22 22 23 24 25 27 28 29 29 29 30 31 32 32 31 31 31 32
16 16 17 17 16 16 17 17 17 18 17 17 18 18 19 20 19 19 18 17 19 20 20 21 22 22 22 21 20 18 17 17 16 16 17 17 16 16 17 18 18 18 17 16 18 19 18 17 15 13 12 14 16 17 17 17 17 18 19 21 21 22 23 24 24 23 22 22 22 23 25 26 27 27 28 29 30 31 32 33 33 33 33 34 34
16 15 16 17 16 16 18 18 19 20 19 18 18 19 20 20 19 20 19 18 19 20 21 22 23 23 23 23 21 19 18 18 18 18 18 18 18 19 19 20 20 20 19 18 18 19 17 16 13 12 13 16 16 17 18 18 19 20 21 21 22 22 22 23 23 22 22 22 22 24 25 26 26 27 28 29 30 32 33 34 34 34 35 35 35
16 15 16 17 16 16 18 19 20 21 20 19 19 20 20 20 19 19 20 19 19 21 22 24 25 25 25 24 22 20 20 21 21 19 19 20 21 22 21 21 21 21 20 19 19 18 16 15 14 14 15 15 15 17 18 19 20 21 22 22 22 21 21 21 21 21 22 23 23 24 24 25 26 28 29 30 31 32 33 33 34 35 35 35 35
15 15 15 17 16 16 18 20 20 21 21 20 21 21 21 21 19 19 20 20 20 21 22 24 26 26 26 25 24 24 23 22 22 20 19 21 23 23 23 22 22 21 21 20 19 17 16 15 13 14 15 14 15 17 18 19 20 21 22 23 23 21 20 19 18 19 21 22 23 24 25 26 28 29 30 31 31 32 33 33 34 34 35 35 34
15 14 15 17 16 16 19 20 21 21 21 22 22 23 22 22 21 20 20 21 21 21 23 25 26 27 26 26 26 26 24 22 22 21 21 22 23 23 23 22 22 22 21 20 19 17 16 13 12 14 14 14 16 17 18 19 19 20 21 22 22 21 19 17 17 18 20 21 23 24 26 28 29 29 30 31 32 33 33 34 34 34 35 34 35
14 14 15 17 16 17 20 21 22 22 23 24 24 24 23 23 22 21 21 21 22 22 23 25 26 27 26 25 25 25 23 22 21 21 22 23 23 22 21 21 22 23 22 19 18 17 16 14 14 15 13 14 16 17 18 18 18 19 20 20 20 19 18 17 18 19 20 21 23 24 26 27 28 30 30 31 32 33 34 35 35 35 35 35 35
15 15 17 18 17 18 21 22 23 24 25 25 26 25 24 24 24 23 22 22 23 23 23 23 23 24 23 22 22 22 22 22 21 21 22 22 22 21 20 22 22 23 22 19 16 15 14 14 17 15 13 15 17 18 19 19 19 19 19 19 18 17 17 19 20 21 22 23 24 25 25 26 27 30 31 32 33 34 35 35 35 36 35 35 35
17 17 18 18 18 20 22 23 25 26 27 27 27 26 25 25 25 24 24 24 24 24 24 23 21 20 19 19 20 21 22 21 21 21 21 20 19 19 20 22 22 21 20 18 16 12 11 15 18 16 15 17 17 18 19 19 20 19 19 18 16 16 18 20 21 22 24 24 25 26 26 27 28 30 31 33 34 34 35 35 35 35 35 34 34
19 20 20 20 20 21 23 25 26 28 29 28 28 27 26 26 26 26 26 26 25 26 25 24 22 20 19 20 21 22 21 21 22 21 19 19 19 20 21 22 22 20 19 18 15 12 14 19 19 16 17 17 17 17 17 19 21 20 18 16 16 17 18 20 21 23 24 25 26 27 28 29 30 31 32 33 34 35 35 36 35 35 35 34 33
20 22 22 21 20 22 24 26 28 29 30 29 28 28 27 26 26 27 27 27 26 26 25 23 22 21 21 22 22 22 22 21 21 20 18 19 21 22 23 23 22 21 20 16 13 15 20 22 19 16 16 18 17 17 18 19 19 17 15 14 16 17 18 20 22 23 24 25 26 27 28 30 31 32 33 35 35 35 35 35 35 35 34 34 33
24 26 24 22 22 24 26 27 29 30 30 29 28 28 27 27 27 28 28 27 26 25 23 22 21 20 21 21 22 22 22 22 21 19 18 20 22 23 23 23 22 21 19 16 16 20 22 20 18 16 16 17 18 18 18 17 14 13 13 14 15 17 19 21 22 22 23 25 26 27 29 30 32 33 35 36 36 36 35 34 34 33 33 33 33
29 30 29 27 27 27 28 29 30 31 30 30 28 27 27 28 28 28 28 27 25 23 21 20 20 20 20 21 22 22 21 21 21 20 20 21 23 23 23 22 21 21 19 19 20 21 20 19 18 15 14 16 16 15 14 12 12 12 13 14 16 18 20 21 21 22 23 25 26 28 29 31 33 34 35 36 36 36 35 34 33 32 32 32 31
34 33 32 31 30 30 30 30 31 31 30 30 28 27 27 28 28 27 26 25 23 21 19 19 19 19 20 22 22 21 21 21 22 21 22 23 23 23 22 21 20 19 18 19 20 18 18 19 17 14 14 14 13 11 10 10 11 12 13 15 16 18 19 20 22 23 24 26 27 28 30 32 33 35 36 36 36 35 34 33 33 32 32 31 31
35 36 34 32 31 31 32 32 31 31 30 30 28 27 27 27 27 26 23 21 20 18 17 18 18 18 20 22 21 21 21 21 21 21 22 22 22 23 23 23 21 18 18 18 17 16 17 18 16 14 14 13 11 9 9 10 11 12 14 16 17 18 18 20 22 24 25 26 27 29 30 32 34 35 36 35 35 34 33 32 32 32 31 31 31
31 32 31 30 31 32 33 32 31 31 31 29 27 26 26 26 25 24 21 19 18 17 17 18 19 19 21 22 21 21 21 21 22 22 22 22 22 23 23 24 21 17 16 16 16 16 16 17 15 13 12 12 10 8 9 10 12 13 15 16 18 19 19 21 22 24 25 26 27 28 30 32 34 35 35 35 34 33 32 32 31 31 31 31 31
34 33 31 30 30 32 33 32 31 31 31 29 27 25 25 25 23 21 19 19 18 17 17 18 19 20 21 21 21 21 21 22 22 23 23 23 22 22 23 22 19 15 15 15 15 15 15 15 14 11 10 11 10 9 10 11 12 14 16 17 19 20 21 22 23 24 24 25 26 28 30 33 34 35 34 34 33 32 32 31 31 31 31 31 32
36 36 36 35 32 32 32 31 31 32 31 29 26 25 25 25 22 20 19 19 19 18 18 19 20 20 20 20 20 20 21 22 22 23 23 23 23 23 23 20 17 16 15 14 14 14 14 13 11 10 10 10 11 10 10 11 13 15 16 17 19 20 21 22 23 23 25 26 28 29 32 34 34 35 34 33 32 32 31 31 31 31 32 32 33
34 34 37 37 35 33 32 32 33 32 31 28 26 26 26 25 23 20 19 19 19 19 19 20 21 20 19 19 19 19 20 21 21 21 21 21 22 22 21 18 17 17 15 13 13 13 12 11 10 11 11 10 11 11 11 12 14 15 16 17 18 19 20 21 22 23 25 27 29 31 33 34 34 34 34 34 33 32 31 31 31 32 32 33 34
34 34 35 35 35 34 32 32 34 33 31 28 26 26 25 25 23 20 19 18 19 20 21 21 21 20 18 18 19 20 20 20 20 20 20 20 21 21 20 20 19 17 15 14 13 12 12 12 12 12 11 11 11 12 13 14 14 16 17 18 19 20 21 21 22 24 25 27 30 31 32 33 34 34 34 34 33 32 32 32 32 32 33 33 34
36 35 35 35 35 35 33 33 34 34 32 28 27 26 25 24 22 20 19 19 20 20 21 21 20 18 18 18 19 19 19 19 20 20 20 20 20 21 21 20 18 16 15 13 12 13 13 13 13 12 12 12 12 13 14 15 15 17 18 19 19 20 21 22 23 25 27 28 30 32 33 33 34 34 35 34 34 34 33 33 33 33 34 34 35
37 35 35 38 38 35 34 33 34 35 32 29 27 26 25 23 21 19 19 20 21 20 20 20 18 18 17 17 18 18 19 20 21 21 20 20 19 19 18 18 16 14 13 12 12 13 13 13 12 12 12 13 13 14 15 15 16 18 19 19 20 21 22 23 24 26 28 29 30 31 32 33 34 35 35 35 35 34 34 33 33 34 34 35 36
36 35 37 40 39 35 34 34 35 36 33 29 28 26 25 22 20 19 19 20 20 19 19 18 18 17 18 18 18 19 20 22 21 20 19 19 18 16 15 14 14 13 11 12 13 13 13 13 13 13 13 14 14 15 15 16 17 18 19 20 21 22 23 25 26 28 29 30 30 30 31 32 34 35 36 36 35 35 34 34 34 34 34 35 36
35 35 37 39 37 34 33 35 36 36 33 30 28 26 23 20 19 19 19 20 19 18 18 17 17 17 18 18 18 20 21 21 20 19 18 17 15 14 13 13 13 12 12 12 13 14 13 13 13 14 14 14 14 15 16 17 17 18 19 20 21 23 25 26 28 29 30 30 30 31 31 32 33 34 35 35 35 34 34 34 33 33 34 35 36
Wind_Direction
18 17 18 16 13 11 7 6 10 9 7 6 7 9 8 4 360 358 358 357 358 360 356 357 0 359 0 3 7 10 9 4 2 2 3 4 5 8 10 10 9 8 6 5 7 6 5 3 1 3 9 18 28 36 42 42 36 36 41 50 51 49 48 48 45 40 39 31 20 11 13 0 345 341 342 348 353 352 351 351 349 347 343 338 336
3 6 9 12 11 11 6 1 3 2 1 2 4 6 6 3 1 0 358 356 355 358 356 357 1 360 359 1 3 7 7 4 1 2 3 4 7 9 12 13 12 10 9 9 10 9 6 3 3 4 7 8 8 11 13 10 10 14 23 27 25 20 19 20 15 21 26 18 12 5 358 353 350 350 354 357 1 3 1 359 356 352 348 344 343
355 356 359 5 6 7 4 357 355 354 354 357 360 2 3 2 2 2 358 354 352 354 356 357 1 360 359 360 359 2 5 4 2 0 2 3 6 10 13 15 15 14 12 12 12 10 5 2 4 6 8 6 4 5 4 4 4 7 15 16 11 7 10 15 13 16 20 15 11 4 1 0 2 4 5 8 9 10 9 4 360 357 354 351 349
349 347 350 356 358 359 357 352 348 345 346 350 355 358 0 1 1 2 359 354 350 351 354 357 360 359 358 359 356 358 2 3 1 359 359 0 4 9 13 16 16 16 14 14 13 9 3 1 2 5 6 6 8 7 9 8 8 11 17 18 15 14 15 19 15 14 15 14 9 1 4 5 8 13 11 12 12 12 11 6 3 359 356 353 349
341 342 343 346 350 351 349 347 343 339 339 344 350 354 356 358 359 0 359 354 350 348 351 354 358 358 357 356 354 356 359 359 359 357 357 357 0 5 9 14 16 15 14 13 10 7 1 359 357 358 1 4 9 11 14 12 14 15 18 20 18 18 17 17 14 12 9 4 9 3 2 9 11 12 8 7 10 10 10 6 2 357 353 350 345
331 336 336 338 342 344 344 343 340 336 333 338 345 350 350 352 355 356 357 353 350 347 347 350 355 357 355 353 352 354 355 355 357 355 354 354 357 0 3 7 11 13 11 9 5 1 357 355 352 352 355 0 6 10 16 15 15 13 15 17 14 16 13 16 14 12 5 355 3 3 358 8 9 2 1 4 7 7 6 2 358 352 347 342 337
318 328 329 332 334 337 339 340 338 333 330 333 339 344 344 346 349 351 353 351 349 346 343 346 350 354 353 350 349 350 350 352 354 353 352 350 352 354 356 359 3 5 4 2 357 353 349 347 347 347 349 354 0 3 8 9 8 6 8 9 9 11 8 11 13 11 9 354 355 0 359 3 358 351 356 359 1 1 359 354 349 344 339 335 330
308 319 323 327 329 331 333 336 335 331 328 328 334 339 337 339 343 345 347 347 347 344 341 341 345 351 350 348 346 344 345 348 350 351 349 345 347 349 348 349 352 354 352 351 347 345 342 340 340 340 341 343 348 351 353 356 359 2 4 5 5 5 3 2 4 4 5 355 348 352 353 348 344 346 348 350 352 351 349 345 340 337 333 329 326
303 310 315 321 324 324 327 331 333 329 326 326 329 332 331 332 335 338 340 341 342 341 338 337 340 346 347 346 343 339 340 342 345 347 346 342 340 341 340 339 342 344 342 340 338 337 337 336 336 335 334 334 338 342 345 349 351 356 357 359 357 357 358 356 354 348 345 346 339 338 339 335 339 341 340 343 345 345 342 339 335 332 329 325 322
304 305 307 315 319 320 322 326 330 328 325 326 327 326 325 325 328 330 332 334 336 335 334 333 334 340 344 343 341 336 335 335 338 341 341 340 336 334 332 331 333 335 334 331 329 330 332 333 333 332 330 329 331 334 338 340 341 342 345 348 347 347 351 351 348 342 337 333 328 332 333 332 337 336 336 342 344 343 340 336 333 329 326 324 321
310 305 303 310 314 315 318 323 327 329 327 327 327 323 320 321 323 324 324 327 328 328 328 329 329 334 339 340 339 333 330 330 332 332 334 335 333 331 327 325 325 327 326 324 323 324 327 329 330 329 326 323 323 326 327 328 329 331 336 339 340 341 342 343 340 338 334 327 328 330 328 333 339 337 336 337 339 338 336 334 331 328 326 323 321
310 308 304 306 308 310 313 319 326 329 328 328 326 321 318 319 319 319 318 318 320 319 321 323 324 329 335 337 336 330 326 326 326 325 326 329 330 329 325 322 321 321 321 320 321 321 323 325 327 325 322 319 318 319 320 321 321 324 329 331 333 333 332 335 334 332 328 327 331 329 330 339 340 337 335 330 329 331 331 330 328 327 325 323 321
305 308 305 301 302 304 307 315 325 327 326 326 325 322 320 319 317 316 313 311 312 312 314 318 321 325 330 333 332 329 324 322 321 320 320 323 326 327 325 321 319 318 318 319 320 321 322 323 324 323 320 317 315 315 316 316 317 320 323 324 325 324 327 333 333 330 328 327 329 324 328 338 338 335 332 329 328 328 327 326 325 324 322 321 320
301 303 301 298 295 295 302 311 319 324 326 327 328 328 326 323 318 315 310 306 305 306 310 314 318 321 324 327 330 329 323 318 317 316 316 317 320 324 323 320 318 317 318 318 320 321 321 322 322 321 318 316 313 314 314 312 314 316 319 321 319 319 326 330 328 328 325 323 325 324 326 333 336 333 330 330 328 325 323 322 322 321 321 319 318
301 302 298 293 290 288 295 306 318 324 326 329 334 335 333 328 322 316 310 304 303 304 306 309 313 316 321 325 328 327 321 316 314 313 314 315 315 318 320 319 319 318 318 318 319 321 321 322 320 318 316 314 313 313 313 310 309 310 313 315 313 316 320 320 321 322 321 320 321 324 327 330 332 329 328 328 325 323 322 321 320 320 320 319 317
299 299 295 289 284 282 290 304 318 323 326 332 337 340 339 335 328 321 313 307 305 304 305 307 311 316 321 324 326 325 319 314 311 311 312 312 310 312 315 317 318 318 317 317 318 320 321 321 318 316 314 312 311 312 311 310 307 303 303 303 304 308 310 311 315 316 317 317 317 320 322 325 326 325 327 327 325 324 322 321 320 321 321 320 318
296 293 290 286 280 275 286 305 319 323 327 334 340 344 345 343 338 331 324 318 313 309 307 308 313 318 322 323 323 322 318 312 308 307 308 307 305 306 309 313 316 317 317 317 318 321 321 320 317 315 313 310 309 309 310 309 305 296 292 292 295 300 303 305 309 309 310 312 313 315 317 321 322 323 326 328 328 326 324 323 322 322 322 321 319
292 288 283 280 276 273 286 305 320 324 329 335 341 346 350 350 348 344 338 332 325 317 313 313 317 321 322 321 320 320 317 311 305 303 303 302 301 302 304 309 313 315 316 317 318 320 319 317 316 314 311 308 306 306 308 308 304 295 288 287 290 295 299 302 304 305 306 308 309 312 316 319 320 322 327 329 329 327 325 325 324 324 322 321 320
291 288 283 277 272 274 287 306 320 324 329 334 339 346 354 354 351 349 345 340 331 323 320 319 322 322 320 319 319 319 316 310 304 301 301 299 299 299 301 304 308 311 314 315 316 316 315 314 313 311 308 305 303 303 305 306 303 296 291 290 291 293 296 300 302 305 307 308 310 314 318 318 318 322 327 328 328 327 326 325 324 323 322 321 320
297 299 291 279 270 274 286 306 318 324 326 329 333 338 350 354 351 350 345 340 333 328 326 326 326 323 320 319 319 319 317 311 304 301 300 299 299 300 300 301 303 306 310 312 311 312 313 313 312 310 308 305 303 303 304 303 300 297 297 295 293 295 297 300 303 306 309 311 314 316 316 316 319 323 326 327 327 327 325 324 322 322 321 321 320
288 301 297 281 270 271 282 304 315 320 322 325 325 322 330 339 342 344 341 336 331 329 330 331 329 325 323 322 322 321 319 312 304 301 299 299 301 302 301 301 301 302 306 308 309 310 310 310 311 309 308 306 304 304 304 302 299 298 299 298 297 297 299 302 304 307 310 313 314 314 313 315 320 322 325 326 326 326 325 323 321 321 321 321 320
276 288 293 282 271 270 279 297 309 315 319 324 322 314 312 314 321 327 329 330 326 325 328 331 329 329 328 326 326 324 319 311 305 302 301 303 305 305 303 300 300 301 303 305 306 305 305 307 307 308 309 307 305 304 304 302 300 300 300 300 299 298 300 304 307 310 313 314 314 314 315 318 321 323 325 325 325 325 324 322 321 320 320 320 320
271 277 283 276 270 270 278 291 302 311 315 319 317 313 308 304 305 308 314 320 319 321 324 325 326 330 331 329 329 325 319 312 306 306 308 312 311 309 305 301 300 300 301 302 302 301 302 305 304 307 309 307 306 307 306 304 302 303 302 300 300 302 305 309 312 316 318 318 317 318 319 321 322 323 324 324 324 323 322 321 320 320 320 320 320
273 274 274 267 265 267 276 287 298 307 311 313 311 309 307 302 299 299 304 309 311 315 319 319 322 327 329 329 328 324 319 312 311 313 315 317 315 311 306 303 301 300 300 299 300 300 302 304 303 306 309 308 308 309 308 306 305 305 304 304 308 311 312 314 317 320 321 321 320 319 320 321 321 321 322 322 321 321 320 320 320 320 320 320 321
278 271 268 263 259 263 272 282 293 303 309 310 308 306 305 300 297 296 298 300 303 310 315 314 317 323 326 326 325 323 318 315 318 320 320 319 313 310 306 304 302 300 299 298 300 301 303 304 302 303 306 309 309 309 309 306 306 308 309 312 315 315 315 318 320 321 320 319 318 317 318 318 319 319 320 320 320 319 319 320 320 321 321 321 321
278 267 264 262 258 260 267 278 289 302 310 311 308 305 302 298 296 294 295 295 296 305 311 310 313 318 321 322 321 320 319 320 324 323 321 316 309 308 305 303 302 301 299 298 298 298 300 300 298 299 301 307 309 311 312 309 310 313 313 315 316 314 315 319 320 319 318 316 315 316 316 317 317 317 318 318 319 319 319 320 320 320 321 321 321
269 261 261 259 259 262 266 275 289 302 311 312 308 304 300 296 293 291 291 291 294 302 305 304 309 314 318 319 318 318 321 325 325 319 313 309 308 308 305 304 301 300 297 296 297 296 296 294 292 293 294 301 305 309 310 309 310 312 313 314 315 314 314 318 319 318 317 316 315 315 315 316 316 316 317 318 319 319 319 320 319 320 320 321 321
256 255 257 257 259 264 269 277 290 303 311 310 306 302 297 293 290 288 288 289 293 298 300 300 305 311 315 316 318 320 323 324 319 311 305 303 307 306 304 306 303 297 295 294 294 294 293 289 289 290 291 298 302 305 305 305 308 311 312 313 314 315 315 317 317 317 315 314 313 313 314 315 315 317 318 319 319 319 319 319 319 320 321 322 322
244 249 255 259 261 266 273 282 294 304 309 305 301 297 294 292 289 286 286 291 294 296 298 300 304 308 311 314 319 322 320 316 310 307 305 303 306 304 302 305 303 298 295 293 294 294 291 287 285 284 290 301 302 304 305 307 310 311 312 313 314 316 316 316 316 314 313 312 312 313 314 315 316 318 319 319 319 320 320 321 321 322 323 323 322
236 243 252 258 260 267 276 287 298 303 304 299 295 293 290 289 288 286 288 292 294 296 298 300 303 306 309 314 319 320 314 307 304 308 309 305 305 305 305 304 303 300 296 293 295 295 288 279 274 275 292 304 305 306 308 308 309 310 311 312 314 316 316 315 314 312 311 311 312 314 315 316 317 318 320 320 321 321 322 322 323 323 323 322 321
233 239 248 256 261 271 281 292 299 300 299 294 292 289 286 286 287 289 291 293 293 295 296 298 301 304 309 315 317 314 308 304 306 310 310 305 304 306 307 307 305 302 298 296 297 294 282 273 269 280 298 306 307 308 309 309 310 311 311 313 314 316 316 313 312 311 312 313 315 316 317 318 320 321 322 322 322 322 322 322 323 323 323 322 321
231 236 248 258 266 279 288 294 298 299 297 293 290 288 286 287 290 292 292 292 292 292 293 296 299 303 310 314 312 310 307 306 307 308 307 305 303 304 306 308 306 303 302 300 297 289 281 276 275 291 305 309 310 309 309 311 311 312 314 316 318 319 316 312 311 313 314 316 318 320 321 322 323 323 323 323 322 322 322 323 323 323 322 321 321
233 239 252 263 273 285 289 292 297 299 297 293 289 289 290 291 293 292 290 290 289 291 293 296 299 303 309 311 309 309 307 304 304 304 305 304 302 303 307 309 307 304 303 301 298 290 281 276 285 305 314 313 311 308 310 311 311 313 315 318 320 321 319 315 315 317 319 320 322 323 324 324 323 323 323 323 323 323 324 324 323 323 322 321 321
243 249 259 268 278 286 288 292 298 298 297 294 291 292 293 292 292 290 288 289 290 293 295 296 300 303 306 308 307 307 303 300 302 303 303 303 303 306 309 310 309 305 300 298 296 286 268 267 296 315 317 311 309 308 310 310 311 315 317 319 320 320 319 319 321 321 322 323 324 324 323 323 323 323 323 324 324 324 324 324 323 322 322 321 320
253 258 265 272 280 284 288 294 298 299 297 294 292 293 293 291 290 290 291 292 294 296 297 299 304 306 305 305 305 303 299 298 302 303 302 302 305 309 312 312 312 306 300 298 294 278 257 273 306 319 316 311 309 308 310 311 315 317 318 318 317 318 320 322 325 324 324 325 324 324 323 323 324 324 325 325 325 325 324 323 322 321 321 320 318
258 262 267 273 281 285 291 297 298 298 296 293 292 291 291 290 290 292 294 295 297 298 299 303 308 308 303 301 302 300 297 298 302 303 302 302 305 308 311 312 311 308 305 302 296 281 271 294 314 320 316 311 308 309 312 316 318 317 315 316 317 321 323 325 327 326 325 325 325 325 325 325 325 326 326 325 325 325 324 323 322 320 319 318 317
260 264 270 275 282 287 293 296 296 294 292 291 290 289 289 290 291 294 296 297 299 300 302 305 305 304 301 298 298 298 299 301 304 304 304 306 309 311 313 313 312 313 313 308 301 289 288 304 318 321 314 310 310 312 314 317 317 315 315 318 322 325 325 326 326 325 324 325 326 326 326 326 326 327 327 326 326 325 324 323 322 320 319 318 318
263 264 268 273 280 287 292 294 292 290 290 290 290 289 288 289 293 296 297 300 301 302 304 303 300 300 299 296 297 300 303 304 305 306 308 311 314 315 316 316 315 316 318 313 303 296 300 311 319 317 311 311 316 318 314 314 313 313 317 322 324 324 324 324 324 324 324 325 325 326 326 327 328 329 329 328 327 326 324 323 322 321 320 319 318
265 266 270 276 280 285 290 291 291 290 289 290 288 287 288 291 294 297 299 300 302 303 303 300 297 296 296 297 300 304 306 307 307 305 307 311 315 317 317 316 314 313 313 307 296 298 306 314 314 311 313 314 319 318 314 312 310 312 319 322 323 323 323 323 323 324 324 325 325 326 328 329 330 330 330 329 327 326 324 322 321 320 318 317 316
265 268 272 277 281 284 288 289 290 289 288 286 284 285 290 294 296 298 299 300 302 302 300 299 297 296 298 301 303 306 308 309 309 304 302 308 313 316 316 315 311 307 304 298 295 302 310 310 307 308 312 313 314 312 310 310 310 315 319 322 324 323 322 322 323 324 324 326 327 328 330 331 332 331 330 328 326 324 322 321 319 318 316 315 314
265 267 270 275 279 282 285 288 288 286 284 282 283 288 292 295 297 298 299 300 301 301 299 297 296 298 301 302 303 305 307 308 309 305 302 305 310 313 314 311 306 302 298 295 297 304 306 302 301 304 304 305 306 304 306 309 311 317 321 323 323 321 321 322 324 326 327 328 330 331 332 332 332 331 329 327 325 323 321 320 318 317 316 314 314
260 261 267 273 278 280 282 284 284 282 280 280 285 290 292 295 296 297 299 300 299 299 300 297 295 298 300 300 302 303 304 307 309 308 306 306 308 309 309 307 304 300 296 295 298 299 296 294 296 297 297 301 302 302 307 308 312 319 322 322 320 320 324 325 327 329 329 330 331 332 333 333 332 330 328 326 324 323 321 320 318 317 316 315 315
261 261 267 274 276 279 280 280 280 278 277 280 285 288 291 293 293 296 299 297 296 297 296 294 295 297 298 299 299 299 303 307 308 308 307 307 307 308 308 306 304 299 295 294 293 290 288 290 293 292 293 300 304 303 306 311 317 321 322 321 321 324 328 329 330 330 329 330 331 332 332 332 331 329 328 326 325 323 321 319 318 317 317 317 317
268 268 272 276 277 278 279 278 277 275 276 280 285 287 289 289 288 293 294 291 293 294 292 292 293 294 296 296 295 296 301 305 307 306 305 305 306 307 308 306 302 298 294 290 286 285 285 288 291 290 293 300 302 304 310 316 319 320 322 323 325 328 330 331 330 329 328 330 331 331 331 330 329 329 328 328 325 323 321 320 319 319 318 318 318
269 269 271 274 276 277 277 277 276 274 276 280 283 285 285 283 283 286 287 287 290 292 292 292 293 293 293 293 294 296 301 303 304 303 302 302 303 306 306 303 299 297 291 283 279 281 284 286 290 292 291 294 300 306 312 315 317 320 323 325 326 329 329 329 329 328 329 330 330 330 329 330 330 330 330 329 327 325 323 322 321 321 320 319 319
267 269 270 271 273 273 273 275 275 273 275 278 280 282 281 279 278 278 280 284 287 290 292 293 294 294 292 293 296 298 301 302 302 302 301 301 302 304 305 302 300 296 288 280 279 284 287 288 292 292 290 293 300 305 309 312 316 320 323 325 326 327 327 327 327 329 329 329 329 329 329 330 331 331 331 330 329 327 325 324 323 322 321 320 320
264 266 269 271 271 271 271 272 272 271 272 274 278 279 278 276 274 274 276 280 284 286 289 291 292 293 292 294 296 297 298 300 301 303 303 302 302 302 302 300 297 291 284 281 285 290 292 291 291 290 290 294 298 302 307 311 316 319 322 324 324 324 326 327 328 329 329 328 327 328 329 330 332 332 332 331 330 328 327 326 325 322 321 322 323
262 264 268 271 270 269 269 268 268 269 270 271 274 274 273 273 273 274 275 277 281 284 287 290 291 291 292 294 294 294 295 297 300 303 303 302 301 298 297 296 292 285 281 284 289 292 292 290 288 286 289 294 298 303 306 310 316 319 321 322 322 324 326 327 329 329 328 326 326 327 329 331 332 333 333 332 331 330 329 327 324 323 324 325 325
262 264 267 269 269 266 264 265 267 267 267 269 270 270 270 271 272 273 275 278 281 286 290 291 291 292 295 296 296 296 297 300 302 304 304 301 299 295 292 290 286 281 281 285 288 289 288 286 283 284 289 294 298 302 306 311 316 319 320 321 321 323 326 328 329 327 326 325 326 327 329 331 332 332 333 333 333 331 329 327 326 327 327 327 326
263 265 266 268 267 262 261 263 265 264 264 266 267 268 269 270 270 272 276 279 282 287 290 290 291 294 297 298 298 299 301 303 305 306 305 302 299 293 287 283 279 277 281 285 287 286 283 281 281 284 288 292 296 300 306 312 316 318 319 319 321 324 326 328 327 325 324 325 326 328 329 330 331 332 333 333 332 331 329 328 329 329 328 326 325
263 267 266 266 263 257 258 262 262 262 262 263 264 264 266 267 268 270 273 277 281 286 287 287 290 294 296 296 297 300 302 303 305 305 304 302 297 289 281 275 274 277 282 285 284 281 278 278 280 283 286 290 296 301 307 311 315 317 317 319 321 324 326 326 324 323 323 324 326 327 328 329 330 331 331 331 330 329 329 329 329 328 327 326 326
Height
5904 5904 5903 5903 5902 5902 5902 5901 5901 5900 5900 5899 5898 5897 5896 5896 5895 5893 5891 5890 5889 5889 5888 5888 5887 5886 5885 5884 5883 5882 5882 5881 5881 5880 5880 5879 5879 5878 5877 5877 5876 5876 5876 5875 5875 5874 5874 5873 5873 5872 5871 5871 5870 5870 5870 5870 5870 5870 5869 5869 5868 5868 5867 5867 5866 5866 5865 5864 5864 5863 5862 5861 5861 5860 5860 5860 5860 5859 5859 5859 5859 5858 5858 5857 5857
5904 5903 5903 5902 5902 5902 5902 5901 5901 5900 5900 5899 5898 5897 5896 5896 5895 5893 5891 5890 5889 5888 5888 5887 5887 5885 5884 5884 5883 5882 5882 5881 5880 5880 5879 5879 5878 5878 5877 5876 5876 5876 5876 5876 5875 5874 5874 5873 5873 5872 5872 5871 5871 5870 5870 5870 5870 5870 5870 5869 5869 5868 5868 5867 5866 5866 5865 5864 5863 5863 5862 5861 5861 5861 5861 5860 5860 5860 5860 5859 5859 5858 5858 5857 5857
5903 5903 5903 5902 5902 5902 5901 5901 5901 5900 5899 5899 5898 5897 5896 5896 5894 5893 5891 5890 5889 5888 5887 5887 5886 5885 5884 5884 5883 5882 5882 5881 5880 5880 5879 5879 5878 5878 5877 5876 5876 5876 5876 5876 5875 5875 5875 5874 5873 5873 5872 5872 5871 5871 5871 5870 5870 5870 5870 5869 5869 5868 5868 5867 5866 5866 5865 5864 5863 5863 5862 5862 5862 5862 5861 5861 5860 5860 5860 5860 5859 5859 5858 5857 5857
5903 5903 5902 5902 5902 5901 5901 5901 5900 5900 5899 5898 5898 5897 5896 5895 5894 5892 5891 5889 5888 5888 5887 5887 5886 5885 5884 5884 5883 5882 5882 5881 5880 5880 5879 5879 5878 5878 5877 5876 5876 5876 5876 5876 5875 5875 5875 5874 5874 5873 5872 5872 5871 5871 5871 5871 5870 5870 5869 5869 5869 5868 5868 5867 5867 5866 5865 5865 5864 5863 5863 5863 5863 5862 5862 5862 5861 5861 5860 5860 5859 5859 5858 5858 5857
5903 5903 5902 5902 5901 5901 5901 5901 5900 5900 5899 5898 5897 5896 5896 5895 5894 5892 5891 5889 5888 5887 5887 5886 5886 5885 5884 5884 5883 5882 5882 5881 5880 5880 5879 5879 5878 5878 5877 5876 5876 5875 5875 5875 5875 5875 5875 5875 5874 5873 5873 5872 5871 5871 5871 5870 5870 5869 5869 5868 5868 5868 5868 5868 5867 5866 5865 5865 5865 5864 5864 5864 5863 5863 5863 5862 5861 5861 5861 5860 5859 5859 5858 5857 5856
5904 5903 5902 5902 5901 5901 5900 5900 5900 5899 5899 5898 5897 5896 5895 5895 5894 5892 5891 5889 5888 5887 5886 5886 5885 5885 5884 5884 5883 5882 5882 5881 5880 5880 5879 5879 5878 5878 5877 5877 5876 5875 5875 5875 5875 5875 5874 5874 5874 5873 5873 5872 5872 5871 5870 5870 5869 5869 5869 5868 5868 5868 5868 5868 5867 5867 5865 5864 5865 5865 5864 5864 5864 5863 5863 5862 5861 5861 5860 5859 5859 5858 5857 5857 5856
5903 5903 5902 5902 5901 5900 5900 5900 5899 5899 5898 5897 5897 5896 5895 5895 5893 5892 5891 5889 5888 5887 5886 5885 5885 5885 5884 5884 5883 5882 5882 5881 5880 5880 5879 5879 5878 5878 5877 5877 5876 5875 5875 5875 5874 5874 5874 5874 5873 5873 5873 5872 5872 5871 5870 5869 5869 5869 5868 5868 5868 5868 5868 5868 5868 5867 5866 5864 5865 5865 5864 5864 5864 5864 5863 5862 5861 5861 5860 5859 5858 5858 5857 5856 5855
5903 5903 5902 5902 5901 5900 5899 5899 5899 5898 5898 5897 5896 5896 5895 5894 5893 5892 5891 5889 5888 5887 5886 5885 5885 5884 5884 5883 5883 5882 5881 5881 5880 5879 5879 5879 5878 5878 5877 5877 5876 5875 5875 5874 5874 5874 5874 5873 5873 5873 5872 5872 5872 5871 5870 5870 5869 5868 5868 5868 5868 5868 5868 5867 5867 5867 5867 5866 5865 5865 5865 5865 5864 5863 5862 5862 5861 5860 5859 5859 5858 5857 5857 5856 5855
5903 5902 5902 5901 5901 5900 5899 5899 5898 5898 5897 5897 5896 5895 5895 5894 5893 5891 5890 5889 5887 5886 5885 5885 5884 5884 5883 5883 5882 5882 5881 5880 5880 5879 5879 5879 5878 5877 5877 5877 5876 5875 5875 5874 5874 5874 5873 5873 5873 5872 5872 5872 5871 5871 5870 5870 5869 5868 5868 5868 5867 5867 5867 5867 5866 5866 5866 5866 5866 5865 5865 5865 5864 5863 5863 5862 5861 5860 5859 5858 5858 5857 5856 5855 5854
5902 5902 5901 5901 5900 5899 5899 5898 5898 5898 5897 5896 5896 5895 5894 5893 5892 5890 5889 5888 5887 5886 5885 5884 5883 5883 5883 5882 5882 5881 5881 5880 5879 5878 5878 5878 5878 5877 5877 5876 5876 5875 5875 5874 5874 5873 5873 5873 5873 5872 5872 5871 5871 5870 5870 5869 5869 5868 5868 5867 5867 5866 5867 5866 5866 5865 5865 5865 5865 5864 5864 5864 5864 5863 5863 5862 5861 5860 5859 5858 5857 5856 5855 5854 5853
5901 5901 5900 5900 5900 5899 5898 5898 5897 5897 5896 5896 5895 5894 5893 5892 5890 5890 5888 5887 5886 5885 5884 5884 5883 5882 5882 5881 5881 5881 5880 5880 5879 5878 5877 5877 5877 5877 5876 5876 5876 5875 5875 5874 5874 5873 5873 5873 5873 5872 5872 5871 5870 5870 5869 5869 5868 5868 5868 5867 5866 5866 5866 5866 5866 5865 5864 5864 5864 5864 5864 5863 5863 5862 5862 5861 5860 5859 5858 5857 5856 5855 5854 5853 5852
5900 5900 5899 5899 5899 5898 5898 5897 5897 5897 5896 5895 5894 5893 5892 5890 5889 5888 5888 5886 5886 5885 5884 5883 5882 5881 5881 5880 5880 5880 5880 5879 5878 5878 5877 5877 5877 5876 5876 5876 5875 5875 5874 5874 5874 5873 5873 5873 5872 5872 5871 5871 5870 5870 5869 5868 5868 5868 5867 5867 5866 5866 5865 5866 5866 5865 5864 5863 5863 5863 5862 5862 5862 5861 5861 5860 5859 5858 5857 5856 5855 5854 5853 5852 5851
5899 5899 5899 5898 5898 5898 5897 5897 5896 5896 5895 5894 5893 5892 5891 5889 5888 5887 5886 5885 5885 5884 5883 5882 5881 5881 5880 5880 5879 5879 5879 5879 5878 5877 5876 5876 5876 5876 5875 5875 5875 5875 5874 5874 5873 5873 5873 5873 5872 5872 5871 5870 5870 5869 5869 5868 5868 5867 5867 5866 5866 5865 5865 5865 5865 5865 5864 5863 5863 5862 5862 5861 5861 5860 5860 5859 5858 5857 5856 5855 5854 5852 5851 5850 5849
5897 5898 5898 5898 5897 5897 5897 5896 5896 5895 5894 5893 5892 5891 5890 5888 5887 5886 5885 5884 5884 5883 5883 5882 5881 5880 5880 5879 5879 5879 5879 5878 5877 5877 5876 5876 5875 5875 5875 5875 5874 5874 5874 5873 5873 5873 5873 5872 5872 5871 5871 5870 5870 5869 5869 5868 5868 5867 5867 5866 5865 5864 5864 5865 5864 5864 5863 5863 5862 5862 5861 5861 5860 5859 5858 5858 5857 5856 5855 5854 5853 5851 5850 5848 5847
5895 5896 5897 5897 5896 5896 5896 5895 5895 5894 5893 5892 5891 5890 5889 5887 5886 5885 5884 5883 5883 5883 5882 5881 5881 5880 5879 5879 5878 5878 5878 5877 5877 5876 5876 5875 5875 5874 5874 5874 5874 5874 5873 5873 5873 5872 5872 5872 5871 5871 5870 5870 5869 5869 5869 5868 5868 5867 5866 5865 5864 5864 5864 5864 5864 5863 5862 5862 5861 5861 5860 5860 5859 5858 5857 5857 5856 5855 5854 5853 5851 5850 5848 5847 5845
5893 5895 5896 5896 5895 5895 5895 5894 5894 5893 5892 5891 5890 5889 5888 5886 5885 5884 5882 5882 5882 5882 5881 5881 5880 5879 5878 5878 5878 5877 5877 5877 5876 5875 5875 5875 5874 5874 5873 5873 5873 5873 5873 5872 5872 5872 5872 5871 5871 5870 5870 5869 5869 5869 5868 5868 5868 5867 5866 5865 5864 5864 5863 5863 5863 5862 5861 5861 5860 5860 5859 5859 5858 5857 5856 5855 5854 5853 5852 5851 5850 5848 5847 5845 5844
5892 5893 5895 5895 5894 5895 5894 5893 5893 5892 5891 5890 5889 5888 5887 5886 5884 5883 5882 5881 5881 5881 5881 5880 5879 5879 5878 5877 5877 5877 5876 5876 5875 5875 5874 5874 5873 5873 5873 5873 5873 5872 5872 5872 5871 5871 5871 5871 5870 5870 5869 5868 5868 5868 5868 5868 5867 5867 5866 5864 5863 5863 5862 5862 5862 5861 5861 5860 5859 5858 5858 5857 5857 5856 5855 5854 5853 5852 5850 5849 5848 5846 5845 5843 5842
5890 5891 5893 5894 5893 5893 5893 5892 5892 5891 5890 5889 5889 5887 5887 5885 5884 5883 5882 5881 5881 5880 5880 5879 5879 5878 5877 5876 5876 5875 5875 5875 5874 5874 5873 5873 5872 5872 5872 5872 5872 5872 5871 5871 5871 5871 5870 5870 5869 5869 5868 5867 5867 5867 5867 5867 5867 5866 5865 5864 5863 5862 5862 5861 5860 5860 5860 5859 5858 5857 5856 5856 5855 5854 5853 5852 5851 5850 5849 5847 5846 5844 5843 5841 5840
5889 5889 5891 5892 5892 5892 5892 5892 5891 5890 5889 5889 5888 5887 5886 5885 5884 5882 5881 5881 5880 5880 5879 5879 5878 5878 5877 5875 5875 5874 5874 5874 5874 5873 5872 5872 5871 5871 5871 5871 5871 5871 5870 5870 5870 5870 5869 5869 5869 5868 5867 5867 5866 5866 5867 5866 5865 5865 5864 5863 5862 5862 5861 5860 5859 5859 5858 5857 5857 5856 5855 5855 5854 5853 5852 5851 5849 5848 5847 5845 5844 5842 5841 5839 5838
5888 5888 5889 5890 5891 5891 5891 5890 5890 5889 5888 5888 5887 5886 5885 5884 5883 5882 5881 5880 5880 5879 5879 5878 5878 5877 5876 5875 5874 5873 5872 5873 5872 5872 5871 5871 5870 5870 5870 5870 5870 5870 5870 5870 5869 5869 5868 5868 5867 5867 5866 5866 5866 5866 5865 5865 5864 5863 5863 5862 5861 5861 5860 5859 5858 5857 5856 5856 5855 5854 5854 5853 5852 5851 5850 5849 5848 5846 5845 5843 5842 5840 5839 5837 5836
5888 5887 5888 5889 5890 5890 5890 5890 5888 5888 5887 5887 5886 5885 5884 5883 5882 5881 5880 5880 5879 5879 5878 5878 5877 5876 5875 5874 5873 5872 5871 5871 5871 5871 5870 5870 5870 5869 5869 5869 5869 5869 5869 5868 5868 5867 5867 5866 5866 5865 5865 5865 5864 5864 5864 5864 5863 5862 5862 5861 5860 5859 5859 5858 5857 5856 5855 5855 5854 5853 5853 5852 5851 5849 5848 5847 5846 5845 5843 5841 5840 5838 5837 5835 5833
5886 5887 5887 5887 5888 5889 5889 5888 5888 5887 5886 5885 5885 5884 5883 5882 5881 5880 5880 5879 5878 5878 5877 5877 5876 5875 5874 5873 5872 5871 5870 5869 5869 5869 5869 5869 5869 5869 5869 5869 5868 5868 5867 5867 5867 5866 5865 5865 5864 5864 5863 5863 5863 5863 5863 5863 5861 5861 5861 5860 5859 5858 5858 5857 5855 5855 5854 5854 5853 5852 5851 5850 5849 5848 5847 5845 5844 5843 5841 5839 5838 5836 5835 5833 5831
5884 5885 5886 5886 5886 5887 5887 5887 5886 5885 5885 5884 5883 5883 5882 5881 5879 5879 5878 5878 5877 5876 5876 5875 5874 5874 5873 5872 5871 5870 5869 5868 5868 5868 5868 5868 5868 5868 5868 5868 5867 5867 5866 5866 5865 5865 5864 5864 5863 5862 5862 5862 5861 5862 5862 5861 5860 5860 5859 5858 5858 5857 5856 5855 5854 5853 5853 5852 5851 5850 5849 5848 5847 5846 5845 5843 5842 5841 5839 5838 5836 5834 5832 5831 5829
5882 5883 5885 5885 5885 5885 5885 5885 5885 5884 5884 5883 5882 5881 5880 5879 5878 5877 5877 5876 5875 5875 5875 5874 5873 5873 5872 5871 5870 5869 5868 5868 5868 5868 5868 5868 5867 5867 5867 5867 5866 5866 5865 5864 5864 5863 5863 5862 5861 5861 5861 5860 5860 5861 5861 5859 5858 5858 5858 5857 5856 5855 5855 5854 5852 5852 5851 5850 5849 5848 5847 5846 5845 5844 5843 5841 5840 5839 5837 5836 5834 5832 5830 5828 5826
5879 5880 5881 5883 5884 5884 5884 5884 5884 5883 5883 5881 5880 5879 5878 5877 5876 5876 5875 5875 5874 5873 5873 5872 5871 5871 5870 5869 5868 5868 5867 5867 5868 5869 5869 5868 5867 5866 5866 5866 5865 5864 5864 5863 5862 5862 5861 5861 5860 5860 5860 5859 5859 5859 5859 5858 5857 5857 5857 5856 5855 5854 5853 5852 5851 5850 5850 5849 5848 5847 5846 5845 5844 5842 5841 5839 5838 5836 5835 5833 5831 5830 5827 5826 5824
5876 5877 5878 5880 5881 5882 5882 5883 5883 5882 5882 5880 5878 5877 5876 5875 5875 5874 5874 5873 5872 5872 5871 5870 5870 5869 5868 5868 5867 5866 5866 5867 5868 5869 5867 5867 5866 5865 5865 5865 5864 5864 5863 5862 5861 5861 5860 5860 5859 5859 5859 5858 5858 5857 5857 5856 5856 5856 5855 5854 5853 5853 5852 5851 5850 5849 5848 5848 5847 5845 5844 5843 5842 5840 5839 5837 5835 5834 5832 5830 5829 5827 5825 5823 5821
5874 5875 5875 5877 5878 5879 5880 5881 5881 5881 5880 5878 5877 5875 5874 5874 5873 5873 5872 5871 5870 5870 5869 5869 5868 5867 5867 5866 5866 5865 5866 5867 5867 5867 5865 5865 5865 5864 5864 5863 5863 5862 5862 5861 5860 5859 5859 5858 5858 5857 5858 5857 5857 5856 5856 5855 5855 5854 5854 5853 5852 5851 5851 5850 5849 5848 5847 5846 5845 5844 5842 5841 5839 5838 5836 5835 5833 5831 5829 5828 5826 5825 5823 5820 5819
5872 5873 5873 5874 5876 5876 5877 5878 5879 5878 5878 5877 5876 5874 5873 5872 5872 5871 5870 5869 5869 5868 5868 5867 5866 5865 5865 5864 5864 5865 5866 5867 5866 5864 5864 5864 5864 5864 5863 5862 5862 5861 5860 5860 5858 5858 5858 5857 5857 5856 5856 5856 5856 5855 5855 5855 5854 5853 5853 5852 5852 5850 5849 5849 5848 5847 5845 5844 5843 5842 5840 5839 5837 5836 5834 5832 5830 5828 5827 5825 5823 5821 5820 5817 5815
5870 5871 5871 5872 5873 5874 5874 5875 5876 5875 5875 5875 5874 5873 5871 5870 5870 5869 5868 5868 5868 5867 5867 5866 5865 5864 5863 5863 5864 5865 5865 5865 5863 5862 5862 5863 5863 5863 5862 5861 5860 5859 5858 5858 5857 5856 5857 5856 5855 5855 5855 5855 5855 5854 5854 5853 5853 5852 5851 5851 5851 5849 5848 5847 5846 5845 5844 5843 5841 5840 5839 5837 5835 5833 5831 5830 5828 5826 5824 5822 5820 5818 5816 5814 5812
5869 5869 5869 5870 5871 5872 5872 5872 5873 5872 5873 5873 5873 5871 5870 5869 5868 5867 5867 5867 5867 5866 5865 5864 5863 5862 5861 5862 5863 5864 5863 5862 5861 5861 5861 5861 5861 5861 5860 5859 5858 5857 5856 5856 5855 5855 5855 5854 5854 5854 5854 5854 5853 5852 5852 5851 5851 5851 5850 5849 5849 5848 5847 5845 5844 5842 5842 5841 5840 5838 5836 5835 5833 5831 5829 5827 5825 5823 5821 5819 5816 5814 5812 5811 5809
5867 5867 5868 5868 5869 5870 5869 5869 5870 5870 5871 5871 5870 5869 5868 5867 5867 5866 5866 5866 5865 5864 5863 5862 5861 5860 5860 5862 5862 5862 5861 5860 5859 5860 5860 5859 5859 5858 5857 5856 5856 5855 5854 5854 5853 5853 5853 5852 5852 5852 5852 5851 5850 5850 5849 5849 5848 5847 5848 5847 5847 5847 5846 5844 5842 5841 5839 5839 5838 5836 5834 5833 5831 5829 5827 5825 5823 5821 5819 5816 5814 5812 5810 5808 5807
5865 5865 5866 5866 5867 5868 5867 5867 5868 5868 5868 5868 5867 5867 5866 5866 5866 5865 5864 5864 5863 5862 5861 5860 5859 5858 5859 5861 5860 5860 5860 5859 5858 5858 5858 5857 5856 5855 5855 5854 5854 5853 5852 5852 5851 5851 5850 5850 5850 5850 5849 5848 5848 5848 5848 5847 5846 5845 5844 5844 5844 5844 5844 5842 5841 5840 5838 5837 5835 5834 5832 5830 5828 5827 5825 5823 5821 5818 5816 5814 5812 5810 5808 5806 5804
5863 5863 5864 5864 5865 5865 5865 5865 5866 5866 5866 5865 5865 5864 5864 5864 5864 5863 5862 5861 5861 5860 5859 5858 5857 5857 5859 5859 5858 5858 5859 5858 5856 5856 5856 5855 5854 5853 5853 5853 5852 5851 5850 5850 5849 5848 5848 5848 5848 5848 5847 5846 5846 5846 5846 5845 5844 5843 5842 5842 5841 5841 5841 5841 5840 5838 5837 5835 5833 5831 5829 5828 5826 5824 5822 5820 5818 5816 5814 5811 5809 5808 5806 5804 5801
5861 5862 5861 5861 5863 5863 5863 5863 5864 5863 5863 5862 5862 5862 5862 5862 5861 5861 5860 5859 5859 5858 5858 5857 5856 5856 5857 5856 5856 5857 5857 5856 5855 5855 5854 5852 5851 5851 5851 5851 5850 5849 5848 5848 5848 5847 5847 5847 5847 5846 5846 5845 5845 5844 5844 5843 5842 5841 5841 5840 5839 5839 5838 5838 5837 5836 5835 5833 5832 5830 5828 5826 5824 5821 5820 5818 5816 5813 5811 5809 5807 5805 5803 5801 5799
5859 5860 5859 5860 5861 5861 5861 5861 5861 5861 5861 5860 5860 5860 5860 5859 5859 5858 5858 5858 5857 5857 5856 5855 5856 5856 5855 5854 5854 5855 5855 5855 5854 5853 5851 5850 5849 5849 5848 5848 5848 5847 5846 5846 5846 5845 5846 5846 5846 5845 5844 5844 5843 5842 5841 5840 5839 5839 5839 5839 5838 5838 5836 5835 5834 5833 5832 5831 5829 5828 5827 5825 5823 5820 5817 5815 5813 5811 5809 5806 5804 5802 5800 5798 5796
5857 5858 5858 5858 5859 5859 5859 5859 5858 5858 5858 5858 5858 5858 5858 5857 5857 5856 5856 5855 5855 5854 5854 5854 5854 5854 5854 5854 5853 5853 5853 5853 5852 5851 5850 5849 5848 5848 5847 5846 5846 5846 5844 5843 5843 5843 5844 5844 5844 5843 5842 5841 5840 5839 5838 5837 5837 5837 5837 5837 5837 5836 5835 5833 5832 5831 5829 5828 5827 5825 5824 5822 5821 5818 5816 5813 5811 5809 5806 5804 5802 5799 5797 5795 5793
5855 5856 5856 5857 5857 5857 5857 5856 5856 5856 5856 5856 5856 5855 5855 5855 5855 5854 5853 5853 5853 5852 5852 5852 5852 5852 5852 5852 5852 5851 5851 5851 5850 5849 5849 5848 5847 5846 5845 5844 5843 5843 5843 5841 5841 5842 5843 5842 5841 5840 5839 5839 5838 5837 5836 5835 5835 5836 5836 5836 5835 5834 5833 5832 5831 5829 5827 5826 5825 5823 5821 5819 5818 5816 5813 5811 5808 5806 5803 5801 5799 5797 5794 5792 5791
5852 5853 5854 5855 5855 5855 5855 5854 5854 5854 5854 5854 5853 5853 5853 5853 5853 5852 5851 5851 5850 5850 5850 5850 5850 5850 5850 5850 5850 5849 5849 5849 5848 5847 5847 5846 5844 5843 5842 5841 5840 5840 5840 5839 5839 5840 5840 5839 5838 5839 5837 5836 5836 5835 5835 5834 5834 5835 5835 5834 5833 5833 5831 5830 5829 5827 5826 5824 5823 5821 5819 5817 5815 5813 5810 5808 5806 5803 5801 5798 5796 5794 5791 5789 5788
5849 5849 5851 5852 5853 5853 5853 5852 5851 5851 5851 5851 5851 5851 5851 5851 5850 5850 5849 5849 5848 5848 5848 5848 5848 5848 5848 5848 5848 5847 5847 5847 5846 5845 5845 5844 5842 5841 5840 5840 5839 5838 5838 5837 5838 5838 5837 5836 5837 5838 5836 5834 5834 5834 5833 5834 5834 5834 5833 5833 5832 5831 5830 5829 5827 5826 5824 5823 5821 5819 5817 5815 5812 5810 5808 5805 5803 5801 5799 5796 5794 5792 5789 5787 5785
5846 5847 5848 5849 5850 5850 5850 5849 5849 5849 5849 5849 5849 5849 5849 5849 5848 5847 5847 5847 5847 5847 5846 5846 5846 5846 5846 5846 5845 5845 5845 5845 5844 5843 5843 5842 5841 5840 5839 5838 5838 5838 5837 5837 5837 5836 5835 5835 5836 5836 5835 5834 5833 5833 5833 5833 5833 5832 5832 5831 5831 5829 5828 5827 5826 5824 5823 5821 5819 5817 5815 5812 5810 5808 5805 5803 5800 5798 5796 5794 5792 5789 5787 5785 5783
5844 5844 5845 5847 5847 5847 5847 5847 5847 5847 5847 5846 5846 5847 5847 5846 5846 5845 5845 5845 5845 5845 5845 5845 5845 5844 5844 5844 5844 5843 5843 5842 5842 5841 5840 5839 5839 5838 5838 5837 5837 5837 5836 5836 5835 5834 5834 5835 5836 5835 5834 5833 5832 5832 5832 5832 5831 5831 5830 5830 5829 5828 5827 5825 5824 5822 5820 5819 5817 5815 5812 5810 5808 5806 5803 5801 5798 5796 5793 5791 5789 5787 5784 5782 5780
5840 5841 5842 5844 5844 5844 5845 5845 5845 5845 5843 5843 5844 5844 5844 5844 5843 5842 5843 5843 5843 5843 5843 5843 5843 5843 5842 5842 5842 5842 5841 5841 5840 5839 5838 5837 5836 5836 5836 5836 5836 5836 5835 5835 5834 5833 5834 5835 5835 5833 5832 5832 5831 5831 5831 5830 5830 5830 5829 5828 5827 5826 5825 5824 5822 5820 5818 5816 5815 5812 5810 5808 5806 5803 5801 5799 5796 5793 5791 5788 5786 5784 5781 5779 5777
5836 5837 5839 5840 5841 5842 5842 5843 5843 5841 5840 5840 5841 5842 5842 5842 5841 5841 5841 5841 5841 5841 5841 5841 5841 5841 5840 5840 5840 5840 5839 5839 5838 5836 5835 5835 5834 5834 5834 5833 5833 5834 5833 5833 5832 5833 5833 5833 5833 5832 5830 5830 5830 5830 5830 5829 5829 5828 5827 5826 5825 5824 5823 5821 5820 5818 5816 5815 5813 5811 5809 5806 5804 5802 5799 5796 5793 5791 5788 5786 5784 5781 5779 5776 5774
5833 5835 5837 5837 5839 5839 5839 5839 5839 5838 5837 5837 5838 5839 5840 5839 5838 5839 5839 5838 5839 5840 5840 5839 5839 5839 5839 5839 5838 5838 5837 5836 5835 5834 5833 5832 5832 5832 5832 5831 5831 5831 5831 5831 5831 5832 5832 5831 5831 5830 5829 5828 5829 5829 5828 5828 5827 5826 5826 5824 5823 5821 5820 5819 5818 5817 5815 5813 5811 5809 5807 5805 5803 5800 5797 5794 5791 5789 5786 5783 5781 5778 5776 5773 5771
5831 5833 5834 5834 5836 5837 5836 5836 5835 5834 5834 5835 5836 5837 5837 5836 5836 5837 5836 5836 5837 5837 5838 5838 5837 5837 5837 5837 5836 5836 5835 5834 5833 5832 5831 5831 5830 5830 5830 5829 5829 5829 5829 5829 5830 5830 5830 5829 5828 5828 5828 5827 5827 5827 5827 5826 5826 5825 5824 5822 5821 5820 5819 5817 5816 5815 5813 5811 5809 5808 5805 5803 5800 5798 5795 5792 5789 5786 5783 5780 5778 5775 5773 5770 5768
5829 5830 5830 5831 5833 5833 5832 5832 5832 5831 5831 5832 5833 5834 5834 5833 5834 5834 5834 5835 5835 5835 5835 5835 5835 5835 5835 5834 5834 5833 5832 5831 5831 5830 5829 5829 5828 5828 5828 5827 5827 5827 5827 5828 5828 5828 5827 5827 5826 5826 5827 5826 5826 5826 5825 5825 5824 5823 5822 5821 5820 5819 5818 5816 5815 5813 5811 5809 5807 5805 5803 5801 5798 5795 5792 5789 5786 5784 5781 5778 5775 5772 5770 5767 5764
5826 5826 5827 5828 5829 5828 5828 5828 5828 5828 5829 5829 5830 5831 5831 5831 5831 5832 5833 5833 5833 5833 5833 5833 5833 5833 5832 5832 5831 5831 5830 5829 5829 5828 5827 5827 5827 5826 5826 5826 5826 5825 5825 5825 5825 5825 5825 5825 5825 5825 5825 5825 5824 5824 5823 5823 5822 5821 5820 5819 5818 5817 5816 5814 5813 5811 5809 5807 5805 5803 5801 5799 5796 5793 5790 5787 5784 5781 5778 5775 5772 5770 5767 5764 5761
5821 5822 5823 5824 5824 5824 5825 5825 5825 5825 5826 5827 5827 5828 5828 5828 5829 5830 5831 5831 5831 5831 5832 5831 5831 5830 5830 5830 5829 5828 5828 5827 5826 5826 5825 5825 5825 5824 5824 5823 5823 5823 5823 5823 5823 5823 5823 5823 5824 5824 5823 5823 5823 5822 5822 5821 5820 5819 5818 5817 5816 5815 5814 5812 5811 5809 5807 5805 5803 5801 5799 5796 5793 5790 5787 5784 5781 5778 5775 5772 5770 5767 5764 5761 5758
5817 5819 5820 5819 5819 5820 5821 5822 5822 5822 5823 5824 5824 5825 5825 5826 5827 5828 5829 5828 5828 5829 5829 5829 5828 5828 5828 5827 5827 5826 5825 5825 5824 5824 5823 5823 5823 5822 5822 5821 5822 5822 5821 5821 5821 5822 5822 5822 5822 5822 5822 5821 5821 5820 5820 5819 5818 5817 5816 5815 5814 5813 5811 5810 5809 5807 5805 5803 5801 5799 5796 5793 5790 5787 5784 5781 5778 5775 5772 5769 5766 5763 5760 5757 5755
5813 5815 5816 5814 5815 5816 5817 5818 5819 5819 5820 5821 5821 5822 5823 5824 5825 5826 5826 5826 5826 5826 5826 5826 5826 5826 5825 5825 5824 5823 5823 5822 5822 5821 5821 5820 5821 5820 5820 5820 5820 5820 5820 5820 5820 5820 5821 5821 5821 5821 5821 5820 5819 5819 5818 5817 5816 5815 5814 5813 5812 5810 5809 5808 5806 5805 5803 5801 5799 5796 5793 5790 5788 5785 5781 5778 5775 5772 5770 5767 5764 5761 5758 5755 5752
5810 5812 5811 5810 5811 5812 5813 5815 5815 5816 5817 5818 5818 5819 5821 5822 5823 5823 5824 5824 5824 5824 5824 5824 5824 5823 5823 5822 5821 5821 5820 5820 5820 5819 5819 5819 5819 5819 5818 5818 5818 5818 5818 5819 5819 5819 5819 5819 5819 5819 5819 5819 5818 5817 5816 5815 5814 5813 5812 5811 5809 5808 5806 5805 5804 5803 5801 5799 5796 5794 5791 5788 5785 5782 5779 5776 5773 5771 5768 5764 5762 5759 5756 5753 5749